This is the latest recevied weather packets stored in our database for station/object KD6VLN-14. If no packets are shown the sender has not sent any weather packets the latest 1 day(s).
| Time | Temp. | Humidity | Pressure | Rain* | Wind** | Luminosity | Snow |
|---|---|---|---|---|---|---|---|
| 1778048048 | 15° C | 37% | - | 0 mm | 0 m/s | - | - |
| 1778048040 | 15° C | 36% | - | 0 mm | 0.45 m/s, 256° | - | - |
| 1778047748 | 15° C | 36% | - | 0 mm | 0.45 m/s, 256° | - | - |
| 1778047574 | 15° C | 36% | - | 0 mm | 0 m/s | - | - |
| 1778047448 | 15° C | 36% | - | 0 mm | 0 m/s | - | - |
| 1778046924 | 15.56° C | 37% | - | 0 mm | 1.79 m/s, 248° | - | - |
| 1778046848 | 15.56° C | 37% | - | 0 mm | 1.79 m/s, 248° | - | - |
| 1778046750 | 15.56° C | 37% | - | 0 mm | 1.79 m/s, 251° | - | - |
| 1778046548 | 15.56° C | 37% | - | 0 mm | 1.79 m/s, 251° | - | - |
| 1778046404 | 15.56° C | 37% | - | 0 mm | 1.34 m/s, 249° | - | - |
| 1778046248 | 15.56° C | 37% | - | 0 mm | 1.34 m/s, 249° | - | - |
| 1778046204 | 15.56° C | 37% | - | 0 mm | 0.89 m/s, 257° | - | - |
| 1778045948 | 15.56° C | 37% | - | 0 mm | 0.89 m/s, 257° | - | - |
| 1778045798 | 15° C | 37% | - | 0 mm | 1.34 m/s, 262° | - | - |
| 1778045648 | 15° C | 37% | - | 0 mm | 1.34 m/s, 262° | - | - |
| 1778045535 | 15° C | 36% | - | 0 mm | 0.45 m/s, 262° | - | - |
| 1778045348 | 15° C | 36% | - | 0 mm | 0.45 m/s, 262° | - | - |
| 1778045278 | 15° C | 37% | - | 0 mm | 0 m/s | - | - |
| 1778045048 | 15° C | 37% | - | 0 mm | 0 m/s | - | - |
| 1778044825 | 15° C | 36% | - | 0 mm | 0 m/s | - | - |
| 1778044748 | 15° C | 36% | - | 0 mm | 0 m/s | - | - |
| 1778044640 | 15° C | 36% | - | 0 mm | 0 m/s | - | - |
| 1778044448 | 15° C | 36% | - | 0 mm | 0 m/s | - | - |
| 1778044378 | 15.56° C | 36% | - | 0 mm | 0 m/s | - | - |
| 1778044148 | 15.56° C | 36% | - | 0 mm | 0 m/s | - | - |
* Rain latest hour (hover to see other rain measurements)
** Current wind speed in m/s (hover to see current wind gust speed)